Zurück zum Katalog

STARLINK-32224

AktivKommunikationVLEO
NORAD 60941·PAYLOAD·🇺🇸 United States

Gestartet Aug 31, 2024 von Vandenberg Space Force Base

Loading…

Nächste Überflüge (nächste 24 Stunden)

TLE

AktuellSource: CelesTrak SupGP

Epoche: Sep 14, 2026, 14:52 UTC

1 60941C 24155T   26257.61993056  .00006646  00000+0  19644-3 0  2573
2 60941  53.1603 329.2492 0001220  74.0903  57.0810 15.34372780    11

Verfolge STARLINK-32224 in Echtzeit mit AllMySat

Download on the App Store